Home > Weather > New City > Past weeks

Flag for USA Past Weather in New City, New York, USA — Yesterday and Last 2 Weeks

Now
80 °F

Fog.


Feels Like: 85 °F
Forecast: 75 / 96 °F
Wind: 6 mph from Southeast

Location: Westchester County Airport

Current Time: Jul 25, 2016 at 6:08:49 PM

Latest Report: Jul 25, 2016 at 4:56 PM


Visibility: 7 mi

Pressure: 29.83 "Hg

Humidity: 85%

Dew Point: 75 °F

Location of New CityLocation

Past Weather in New City — Graph

°F

New City Temperature Yesterday

Maximum temperature yesterday: 92 °F (at 2:56 PM)
Minimum temperature yesterday: 67 °F (at 4:56 AM)
Average temperature yesterday: 78 °F

High & Low Weather Summary for the Past Weeks

 TemperatureHumidityPressure
High94 °F (Jul 23, 2:56 PM)97% (Jul 14, 3:56 AM)30.23 "Hg (Jul 14, 3:56 AM)
Low62 °F (Jul 11, 5:56 AM)25% (Jul 23, 3:56 PM)29.76 "Hg (Jul 22, 6:56 PM)
Average77 °F65%29.99 "Hg
* Reported Jul 10 4:56 PM — Jul 25 4:56 PM, New City, Weather by CustomWeather, © 2016

Note: Actual official high and low records may vary slightly from our data, if they occured in-between our weather recording intervals... More about our weather records

Advertising

New City Weather History for the Previous 24 Hours

Scroll right to see more
 ConditionsComfort  
Time TempWeatherWind HumidityBarometerVisibility
4:56 PM
Mon, Jul 25
80 °FFog.6 mph85%29.83 "Hg7 mi
3:56 PM77 °FFog.7 mph90%29.85 "Hg5 mi
2:56 PM87 °FPartly sunny.7 mph59%29.83 "Hg10 mi
1:56 PM88 °FPassing clouds.10 mph59%29.86 "Hg10 mi
12:56 PM85 °FPassing clouds.9 mph65%29.88 "Hg10 mi
11:56 AM83 °FScattered clouds.9 mph72%29.89 "Hg10 mi
10:56 AM82 °FScattered clouds.8 mph72%29.91 "Hg10 mi
9:56 AM81 °FPassing clouds.7 mph72%29.91 "Hg10 mi
8:56 AM78 °FLight rain. Partly sunny.3 mph76%29.93 "Hg10 mi
7:56 AM74 °FLight rain. Broken clouds.No wind88%29.93 "Hg10 mi
6:56 AM75 °FLight rain. Partly sunny.No wind79%29.94 "Hg8 mi
5:56 AM74 °FPassing clouds.No wind85%29.93 "Hg10 mi
4:56 AM73 °FPassing clouds.No wind84%29.93 "Hg10 mi
3:56 AM73 °FClear.No wind84%29.92 "Hg10 mi
2:56 AM72 °FClear.No wind84%29.93 "Hg10 mi
1:56 AM72 °FClear.No wind84%29.93 "Hg10 mi
12:56 AM72 °FClear.No wind84%29.95 "Hg10 mi
11:56 PM
Sun, Jul 24
73 °FClear.No wind81%29.96 "Hg10 mi
10:56 PM74 °FClear.No wind79%29.96 "Hg10 mi
9:56 PM76 °FClear.5 mph72%29.96 "Hg10 mi
8:56 PM76 °FPassing clouds.3 mph69%29.95 "Hg10 mi
7:56 PM78 °FPassing clouds.7 mph64%29.94 "Hg10 mi
6:56 PM82 °FSunny.7 mph55%29.93 "Hg10 mi
Weather by CustomWeather, © 2016

See weather overviewHow to use our weather pages